Tracking 27107 objects as of 21-Mar-2023
HD Live streaming from Space Station
objects crossing your sky now

ATLAS 3B CENTAUR R/B

Track ATLAS 3B CENTAUR R/B now!
10-day predictions


NORAD ID: 28538
Int'l Code: 2005-004B
Perigee: 969.0 km
Apogee: 1,240.2 km
Inclination: 63.8 °
Period: 107.2 minutes
Semi major axis: 7475 km
RCS: Unknown
Launch date: February 3, 2005
Source: United States (US)
Launch site: AIR FORCE EASTERN TEST RANGE (AFETR)

Note: This is a ROCKET BODY
Your satellite tracking list
Your tracking list is empty




NASA's NSSDC Master Catalog

Two Line Element Set (TLE):
1 28538U 05004B   23046.15937032 0.00000000  00000-0  00000-0 0    03
2 28538  63.8240 121.0203 0181354 326.4258  33.5742 13.43183746    06
Source of the keplerian elements: McCants